Location: Byhalia Creek
(34.8270°N, 89.8040°W)
Time: 16:52:36
(UTC+00:00)

SPOT 5 - Pass Details

Date: 22 April 2026
Orbit: 618 x 803 km, 98.0° (Epoch: 9 May)

Event Time Altitude Azimuth Distance (km) Brightness Sun altitude
Exits shadow 01:10:05 - 144° (SE) 2,660 5.3 -7.4°
Reaches altitude 10° 01:11:31 10° 138° (SE) 2,107 4.7 -7.7°
Maximum altitude 01:15:41 36° 73° (ENE) 1,043 3.3 -8.5°
Drops below altitude 10° 01:19:43 10° 7° (N) 2,033 5.4 -9.2°
Sets 01:22:01 0° 359° (N) 2,928 6.4 -9.7°
